Regional Weather Roundup
Issued by NWS Green Bay, WI

Home | Current Version | Previous Version | Graphics & Text | Print | Product List | Glossary Off
Versions: 1 2 3 4 5 6 7 8 9 10 11 12 13 14 15 16 17 18 19 20 21 22 23 24 25 26 27 28 29 30 31 32 33 34 35 36 37 38 39 40 41 42 43 44 45 46 47 48 49 50

000
ASUS43 KGRB 012111
RWRGRB

NORTH-CENTRAL AND NORTHEAST WISCONSIN REGIONAL WEATHER ROUNDUP
NATIONAL WEATHER SERVICE GREEN BAY WI
400 PM CDT WED JUL 01 2015

WIZ005-009-010>012-018-019-012200-
NORTH CENTRAL WISCONSIN

CITY           SKY/WX    TMP DP  RH WIND       PRES   REMARKS
IRONWOOD       SUNNY     66  45  45 CALM      29.99F
MANITOWISH WTR SUNNY     68  46  44 NE3       30.01F
ARBOR VITAE    SUNNY     69  45  41 CALM      30.01F
EAGLE RIVER    SUNNY     68  39  34 N7        30.01S
LAND O LAKES   SUNNY     68  42  38 N7        30.03S
RHINELANDER    SUNNY     69  42  37 VRB3      30.02S
PHILLIPS       SUNNY     69  47  45 E5        30.00F
ANTIGO         MOSUNNY   67  44  42 CALM      30.01S
TOMAHAWK       MOSUNNY   69  44  40 NE5       30.01F
MERRILL        MOSUNNY   70  46  42 NE7       30.00S
$$

WIZ013-073-012200-
NORTHEAST WISCONSIN

CITY           SKY/WX    TMP DP  RH WIND       PRES   REMARKS
IRON MOUNTAIN  SUNNY     69  42  37 VRB6      29.98F
MARINETTE      MOSUNNY   64  48  55 SE7       29.98S
OCONTO         PTSUNNY   69  53  58 SE7       29.97F
$$

WIZ017-030-035>037-045-012200-
CENTRAL WISCONSIN

CITY           SKY/WX    TMP DP  RH WIND       PRES   REMARKS
MEDFORD        SUNNY     69  45  42 NE6       30.00S
WAUSAU         MOSUNNY   72  42  34 NE7       29.97F
MOSINEE        SUNNY     70  45  40 N6        29.99F
MARSHFIELD     MOSUNNY   71  44  37 CALM      29.99F
WISC RAPIDS    PTSUNNY   71  42  35 VRB3      30.00F
STEVENS POINT  PTSUNNY   68  44  41 NE8       29.99S
WAUPACA        PTSUNNY   71  46  40 E5        29.98F
SHAWANO        PTSUNNY   73  44  35 CALM      29.98F
CLINTONVILLE   PTSUNNY   70  41  35 N3        29.98F
$$

WIZ038-039-048-051-012200-
FOX VALLEY

CITY           SKY/WX    TMP DP  RH WIND       PRES   REMARKS
NWS GREEN BAY  CLOUDY    67  51  56 NE6       29.99F
APPLETON       MOSUNNY   66  48  52 NE12      29.99F
OSHKOSH        PTSUNNY   66  52  60 E8        29.98S
FOND DU LAC    PTSUNNY   69  53  56 NE14      29.98F
$$

WIZ022-050-052-012200-
EAST CENTRAL WISCONSIN

CITY           SKY/WX    TMP DP  RH WIND       PRES   REMARKS
STURGEON BAY   MOSUNNY   64  48  55 NE7       30.01S
MANITOWOC      CLOUDY    59  54  83 MISG      30.01S
SHEBOYGAN      PTSUNNY   60  53  77 NE8       30.00R
$$

LMZ563-521-522-541>543-012200-
LAKESHORE

STATION/POSITION TIME  TEMP    WIND        PRES    VSBY  WAVE
                       AIR SEA DIR/SP/G                  HT/PER
                 (UTC) (F)     (DEG/KT/KT) (MB)    (MI)  (FT/S)
SHEBOYGAN LKSHOR 2100   53      50/  7/  9 1016.4R
KEWAUNEE LKSHORE 2000   57     140/  2/  5 1015.3R
ALGOMA MARINA    2010          160/  6/  8   N/A
NORTHPORT PIER   2000   60     360/  9/ 12 1015.6S
N MID LAKE BUOY  2050   52 45  240/  4/  6 1015.7F         1/ 4
SISTER BAY LKSHO 2014   68     360/ 15/ 19   N/A
CHAMBERS ISLAND  2000   61      60/  5/  8 1015.6F
MENOMINEE LKSHOR 2000   60     120/  5/  7 1016.3F
$$



USA.gov is the U.S. government's official web portal to all federal, state and local government web resources and services.